Year,Month,Day,Hour,Minute,Value (Times are PST for temperature in C)
2013,08,13,09,47,18.30
2013,08,13,09,48,18.40
2013,08,13,09,49,18.40
2013,08,13,09,50,18.40
2013,08,13,09,51,18.50
2013,08,13,09,52,18.50
2013,08,13,09,53,18.60
2013,08,13,09,54,18.60
2013,08,13,09,55,18.70
2013,08,13,09,56,18.70
2013,08,13,09,57,18.80
2013,08,13,09,58,18.90
2013,08,13,09,59,18.90
2013,08,13,10,00,19.00
2013,08,13,10,01,19.00
2013,08,13,10,02,19.10
2013,08,13,10,03,19.00
2013,08,13,10,04,19.00
2013,08,13,10,05,18.90
2013,08,13,10,06,18.90
2013,08,13,10,07,18.90
2013,08,13,10,08,18.90
2013,08,13,10,09,19.00
2013,08,13,10,10,19.00
2013,08,13,10,11,19.10
2013,08,13,10,12,19.20
2013,08,13,10,13,19.20
2013,08,13,10,14,19.30
2013,08,13,10,15,19.30
2013,08,13,10,16,19.30
2013,08,13,10,17,19.30
2013,08,13,10,18,19.30
2013,08,13,10,19,19.30
2013,08,13,10,20,19.30
2013,08,13,10,21,19.30
2013,08,13,10,22,19.30
2013,08,13,10,23,19.30
2013,08,13,10,24,19.30
2013,08,13,10,25,19.40
2013,08,13,10,26,19.50
2013,08,13,10,27,19.50
2013,08,13,10,28,19.40
2013,08,13,10,29,19.40
2013,08,13,10,30,19.40
2013,08,13,10,31,19.30
2013,08,13,10,32,19.30
2013,08,13,10,33,19.20
2013,08,13,10,34,19.00
2013,08,13,10,35,18.90
2013,08,13,10,36,18.80
2013,08,13,10,37,18.70
2013,08,13,10,38,18.70
2013,08,13,10,39,18.70
2013,08,13,10,40,18.70
2013,08,13,10,41,18.70
2013,08,13,10,42,18.70
2013,08,13,10,43,18.70
2013,08,13,10,44,18.60
2013,08,13,10,45,18.70
2013,08,13,10,46,18.70
2013,08,13,10,47,18.80
2013,08,13,10,48,18.80
2013,08,13,10,49,18.80
2013,08,13,10,50,18.80
2013,08,13,10,51,18.80
2013,08,13,10,52,18.70
2013,08,13,10,53,18.70
2013,08,13,10,54,18.70
2013,08,13,10,55,18.80
2013,08,13,10,56,18.80
2013,08,13,10,57,18.80
2013,08,13,10,58,18.90
2013,08,13,10,59,18.90
2013,08,13,11,00,18.80
2013,08,13,11,01,18.80
2013,08,13,11,02,18.80
2013,08,13,11,03,18.90
2013,08,13,11,04,18.90
2013,08,13,11,05,18.90
2013,08,13,11,06,19.00
2013,08,13,11,07,19.00
2013,08,13,11,08,19.10
2013,08,13,11,09,19.10
2013,08,13,11,10,19.10
2013,08,13,11,11,19.10
2013,08,13,11,12,19.10
2013,08,13,11,13,19.20
2013,08,13,11,14,19.20
2013,08,13,11,15,19.20
2013,08,13,11,16,19.20
2013,08,13,11,17,19.30
2013,08,13,11,18,19.30
2013,08,13,11,19,19.30
2013,08,13,11,20,19.30
2013,08,13,11,21,19.30
2013,08,13,11,22,19.30
2013,08,13,11,23,19.30
2013,08,13,11,24,19.30
2013,08,13,11,25,19.30
2013,08,13,11,26,19.30
2013,08,13,11,27,19.30
2013,08,13,11,28,19.40
2013,08,13,11,29,19.40
2013,08,13,11,30,19.40
2013,08,13,11,31,19.50
2013,08,13,11,32,19.60
2013,08,13,11,33,19.70
2013,08,13,11,34,19.80
2013,08,13,11,35,20.00
2013,08,13,11,36,20.00
2013,08,13,11,37,20.00
2013,08,13,11,38,20.00
2013,08,13,11,39,19.90
2013,08,13,11,40,19.90
2013,08,13,11,41,19.80
2013,08,13,11,42,19.70
2013,08,13,11,43,19.60
2013,08,13,11,44,19.50
2013,08,13,11,45,19.50
2013,08,13,11,46,19.40
2013,08,13,11,47,19.40
2013,08,13,11,48,19.40
2013,08,13,11,49,19.40
2013,08,13,11,50,19.40
2013,08,13,11,51,19.40
2013,08,13,11,52,19.30
2013,08,13,11,53,19.30
2013,08,13,11,54,19.30
2013,08,13,11,55,19.40
2013,08,13,11,56,19.40
2013,08,13,11,57,19.50
2013,08,13,11,58,19.50
2013,08,13,11,59,19.50
2013,08,13,12,00,19.50
2013,08,13,12,01,19.60
2013,08,13,12,02,19.70
2013,08,13,12,03,19.80
2013,08,13,12,04,19.80
2013,08,13,12,05,19.80
2013,08,13,12,06,19.90
2013,08,13,12,07,19.90
2013,08,13,12,08,19.90
2013,08,13,12,09,19.80
2013,08,13,12,10,19.70
2013,08,13,12,11,19.60
2013,08,13,12,12,19.60
2013,08,13,12,13,19.60
2013,08,13,12,14,19.60
2013,08,13,12,15,19.80
2013,08,13,12,16,19.80
2013,08,13,12,17,19.90
2013,08,13,12,18,19.90
2013,08,13,12,19,20.00
2013,08,13,12,20,20.00
2013,08,13,12,21,20.00
2013,08,13,12,22,20.00
2013,08,13,12,23,20.00
2013,08,13,12,24,20.00
2013,08,13,12,25,20.00
2013,08,13,12,26,19.90
2013,08,13,12,27,19.70
2013,08,13,12,28,19.60
2013,08,13,12,29,19.40
2013,08,13,12,30,19.30
2013,08,13,12,31,19.30
2013,08,13,12,32,19.20
2013,08,13,12,33,19.20
2013,08,13,12,34,19.10
2013,08,13,12,35,19.00
2013,08,13,12,36,18.90
2013,08,13,12,37,18.90
2013,08,13,12,38,18.80
2013,08,13,12,39,18.80
2013,08,13,12,40,18.80
2013,08,13,12,41,18.80
2013,08,13,12,42,18.80
2013,08,13,12,43,18.70
2013,08,13,12,44,18.70
2013,08,13,12,45,18.70
2013,08,13,12,46,18.70
2013,08,13,12,47,18.70
2013,08,13,12,48,18.70
2013,08,13,12,49,18.80
2013,08,13,12,50,18.80
2013,08,13,12,51,18.90
2013,08,13,12,52,18.90
2013,08,13,12,53,19.00
2013,08,13,12,54,19.10
2013,08,13,12,55,19.20
2013,08,13,12,56,19.20
2013,08,13,12,57,19.30
2013,08,13,12,58,19.30
2013,08,13,12,59,19.30
2013,08,13,13,00,19.40
2013,08,13,13,01,19.50
2013,08,13,13,02,19.50
2013,08,13,13,03,19.50
2013,08,13,13,04,19.60
2013,08,13,13,05,19.60
2013,08,13,13,06,19.60
2013,08,13,13,07,19.70
2013,08,13,13,08,19.80
2013,08,13,13,09,19.80
2013,08,13,13,10,19.80
2013,08,13,13,11,19.90
2013,08,13,13,12,19.90
2013,08,13,13,13,19.90
2013,08,13,13,14,20.00
2013,08,13,13,15,20.00
2013,08,13,13,16,19.90
2013,08,13,13,17,19.90
2013,08,13,13,18,19.90
2013,08,13,13,19,19.90
2013,08,13,13,20,19.90
2013,08,13,13,21,19.90
2013,08,13,13,22,19.90
2013,08,13,13,23,19.80
2013,08,13,13,24,19.80
2013,08,13,13,25,19.80
2013,08,13,13,26,19.80
2013,08,13,13,27,19.80
2013,08,13,13,28,19.90
2013,08,13,13,29,19.90
2013,08,13,13,30,20.00
2013,08,13,13,31,20.00
2013,08,13,13,32,20.00
2013,08,13,13,33,20.00
2013,08,13,13,34,20.10
2013,08,13,13,35,20.20
2013,08,13,13,36,20.40
2013,08,13,13,37,20.50
2013,08,13,13,38,20.50
2013,08,13,13,39,20.60
2013,08,13,13,40,20.50
2013,08,13,13,41,20.50
2013,08,13,13,42,20.60
2013,08,13,13,43,20.70
2013,08,13,13,44,20.70
2013,08,13,13,45,20.80
2013,08,13,13,46,20.80
2013,08,13,13,47,20.80
2013,08,13,13,48,20.70
2013,08,13,13,49,20.70
2013,08,13,13,50,20.80
2013,08,13,13,51,20.90
2013,08,13,13,52,20.90
2013,08,13,13,53,20.90
2013,08,13,13,54,20.80
2013,08,13,13,55,20.90
2013,08,13,13,56,21.00
2013,08,13,13,57,21.10
2013,08,13,13,58,21.20
2013,08,13,13,59,21.30
2013,08,13,14,00,21.40
2013,08,13,14,01,21.50
2013,08,13,14,02,21.60
2013,08,13,14,03,21.70
2013,08,13,14,04,21.80
2013,08,13,14,05,21.80
2013,08,13,14,06,21.80
2013,08,13,14,07,21.70
2013,08,13,14,08,21.50
2013,08,13,14,09,21.40
2013,08,13,14,10,21.30
2013,08,13,14,11,21.10
2013,08,13,14,12,20.90
2013,08,13,14,13,20.90
2013,08,13,14,14,20.90
2013,08,13,14,15,20.80
2013,08,13,14,16,20.70
2013,08,13,14,17,20.50
2013,08,13,14,18,20.40
2013,08,13,14,19,20.30
2013,08,13,14,20,20.30
2013,08,13,14,21,20.30
2013,08,13,14,22,20.30
2013,08,13,14,23,20.20
2013,08,13,14,24,20.20
2013,08,13,14,25,20.20
2013,08,13,14,26,20.20
2013,08,13,14,27,20.10
2013,08,13,14,28,20.10
2013,08,13,14,29,20.00
2013,08,13,14,30,19.90
2013,08,13,14,31,20.00
2013,08,13,14,32,20.00
2013,08,13,14,33,20.10
2013,08,13,14,34,20.10
2013,08,13,14,35,20.20
2013,08,13,14,36,20.30
2013,08,13,14,37,20.50
2013,08,13,14,38,20.60
2013,08,13,14,39,20.80
2013,08,13,14,40,20.80
2013,08,13,14,41,20.90
2013,08,13,14,42,21.00
2013,08,13,14,43,21.00
2013,08,13,14,44,21.10
2013,08,13,14,45,21.20
2013,08,13,14,46,21.30
2013,08,13,14,47,21.40
2013,08,13,14,48,21.40
2013,08,13,14,49,21.40
2013,08,13,14,50,21.40
2013,08,13,14,51,21.20
2013,08,13,14,52,21.20
2013,08,13,14,53,21.20
2013,08,13,14,54,21.20
2013,08,13,14,55,21.30
2013,08,13,14,56,21.20
2013,08,13,14,57,21.20
2013,08,13,14,58,21.30
2013,08,13,14,59,21.40
2013,08,13,15,00,21.40
2013,08,13,15,01,21.40
2013,08,13,15,02,21.20
2013,08,13,15,03,21.10
2013,08,13,15,04,21.00
2013,08,13,15,05,20.90
2013,08,13,15,06,20.80
2013,08,13,15,07,20.80
2013,08,13,15,08,20.80
2013,08,13,15,09,20.80
2013,08,13,15,10,20.90
2013,08,13,15,11,20.90
2013,08,13,15,12,20.90
2013,08,13,15,13,21.00
2013,08,13,15,14,21.00
2013,08,13,15,15,21.10
2013,08,13,15,16,21.20
2013,08,13,15,17,21.30
2013,08,13,15,18,21.50
2013,08,13,15,19,21.60
2013,08,13,15,20,21.70
2013,08,13,15,21,21.70
2013,08,13,15,22,21.80
2013,08,13,15,23,21.80
2013,08,13,15,24,21.90
2013,08,13,15,25,22.00
2013,08,13,15,26,22.10
2013,08,13,15,27,22.20
2013,08,13,15,28,22.10
2013,08,13,15,29,22.20
2013,08,13,15,30,22.20
2013,08,13,15,31,22.20
2013,08,13,15,32,22.20
2013,08,13,15,33,22.20
2013,08,13,15,34,22.30
2013,08,13,15,35,22.30
2013,08,13,15,36,22.20
2013,08,13,15,37,22.20
2013,08,13,15,38,22.20
2013,08,13,15,39,22.20
2013,08,13,15,40,22.20
2013,08,13,15,41,22.20
2013,08,13,15,42,22.20
2013,08,13,15,43,22.20
2013,08,13,15,44,22.20
2013,08,13,15,45,22.10
2013,08,13,15,46,22.00
2013,08,13,15,47,21.90
2013,08,13,15,48,21.80
2013,08,13,15,49,21.80
2013,08,13,15,50,21.90
2013,08,13,15,51,21.90
2013,08,13,15,52,22.00
2013,08,13,15,53,22.00
2013,08,13,15,54,21.90
2013,08,13,15,55,21.80
2013,08,13,15,56,21.60
2013,08,13,15,57,21.60
2013,08,13,15,58,21.60
2013,08,13,15,59,21.70
2013,08,13,16,00,21.70
2013,08,13,16,01,21.70
2013,08,13,16,02,21.70
2013,08,13,16,03,21.70
2013,08,13,16,04,21.70
2013,08,13,16,05,21.60
2013,08,13,16,06,21.60
2013,08,13,16,07,21.50
2013,08,13,16,08,21.50
2013,08,13,16,09,21.40
2013,08,13,16,10,21.40
2013,08,13,16,11,21.40
2013,08,13,16,12,21.40
2013,08,13,16,13,21.40
2013,08,13,16,14,21.40
2013,08,13,16,15,21.30
2013,08,13,16,16,21.30
2013,08,13,16,17,21.30
2013,08,13,16,18,21.30
2013,08,13,16,19,21.30
2013,08,13,16,20,21.30
2013,08,13,16,21,21.40
2013,08,13,16,22,21.50
2013,08,13,16,23,21.60
2013,08,13,16,24,21.70
2013,08,13,16,25,21.80
2013,08,13,16,26,21.90
2013,08,13,16,27,22.00
2013,08,13,16,28,22.00
2013,08,13,16,29,22.10
2013,08,13,16,30,22.10
2013,08,13,16,31,22.20
2013,08,13,16,32,22.20
2013,08,13,16,33,22.30
2013,08,13,16,34,22.30
2013,08,13,16,35,22.40
2013,08,13,16,36,22.40
2013,08,13,16,37,22.50
2013,08,13,16,38,22.60
2013,08,13,16,39,22.70
2013,08,13,16,40,22.80
2013,08,13,16,41,22.90
2013,08,13,16,42,23.00
2013,08,13,16,43,23.00
2013,08,13,16,44,23.10
2013,08,13,16,45,23.10
2013,08,13,16,46,23.20
2013,08,13,16,47,23.20
2013,08,13,16,48,23.20
2013,08,13,16,49,23.20
2013,08,13,16,50,23.20
2013,08,13,16,51,23.20
2013,08,13,16,52,23.30
2013,08,13,16,53,23.30
2013,08,13,16,54,23.40
2013,08,13,16,55,23.40
2013,08,13,16,56,23.40
2013,08,13,16,57,23.30
2013,08,13,16,58,23.20
2013,08,13,16,59,23.10
2013,08,13,17,00,23.00
2013,08,13,17,01,22.90
2013,08,13,17,02,22.90
2013,08,13,17,03,22.80
2013,08,13,17,04,22.80
2013,08,13,17,05,22.80
2013,08,13,17,06,22.70
2013,08,13,17,07,22.70
2013,08,13,17,08,22.60
2013,08,13,17,09,22.60
2013,08,13,17,10,22.60
2013,08,13,17,11,22.50
2013,08,13,17,12,22.40
2013,08,13,17,13,22.30
2013,08,13,17,14,22.20
2013,08,13,17,15,22.00
2013,08,13,17,16,21.90
2013,08,13,17,17,21.70
2013,08,13,17,18,21.60
2013,08,13,17,19,21.40
2013,08,13,17,20,21.30
2013,08,13,17,21,21.20
2013,08,13,17,22,21.20
2013,08,13,17,23,21.20
2013,08,13,17,24,21.30
2013,08,13,17,25,21.40
2013,08,13,17,26,21.50
2013,08,13,17,27,21.70
2013,08,13,17,28,21.80
2013,08,13,17,29,21.90
2013,08,13,17,30,22.00
2013,08,13,17,31,22.10
2013,08,13,17,32,22.20
2013,08,13,17,33,22.30
2013,08,13,17,34,22.40
2013,08,13,17,35,22.60
2013,08,13,17,36,22.60
2013,08,13,17,37,22.70
2013,08,13,17,38,22.80
2013,08,13,17,39,22.80
2013,08,13,17,40,22.80
2013,08,13,17,41,22.70
2013,08,13,17,42,22.70
2013,08,13,17,43,22.70
2013,08,13,17,44,22.80
2013,08,13,17,45,22.80
2013,08,13,17,46,22.80
2013,08,13,17,47,22.80
2013,08,13,17,48,22.80
2013,08,13,17,49,22.80
2013,08,13,17,50,22.80
2013,08,13,17,51,22.90
2013,08,13,17,52,22.90
2013,08,13,17,53,22.90
2013,08,13,17,54,23.00
2013,08,13,17,55,22.90
2013,08,13,17,56,22.90
2013,08,13,17,57,22.90
2013,08,13,17,58,22.90
2013,08,13,17,59,22.90
2013,08,13,18,00,22.90
2013,08,13,18,01,22.80
2013,08,13,18,02,22.80
2013,08,13,18,03,22.80
2013,08,13,18,04,22.80
2013,08,13,18,05,22.80
2013,08,13,18,06,22.80
2013,08,13,18,07,22.80
2013,08,13,18,08,22.80
2013,08,13,18,09,22.80
2013,08,13,18,10,22.80
2013,08,13,18,11,22.80
2013,08,13,18,12,22.70
2013,08,13,18,13,22.60
2013,08,13,18,14,22.40
2013,08,13,18,15,22.30
2013,08,13,18,16,22.20
2013,08,13,18,17,22.10
2013,08,13,18,18,22.10
2013,08,13,18,19,22.10
2013,08,13,18,20,22.10
2013,08,13,18,21,22.00
2013,08,13,18,22,21.90
2013,08,13,18,23,21.80
2013,08,13,18,24,21.80
2013,08,13,18,25,21.70
2013,08,13,18,26,21.70
2013,08,13,18,27,21.70
2013,08,13,18,28,21.80
2013,08,13,18,29,21.80
2013,08,13,18,30,21.80
2013,08,13,18,31,21.90
2013,08,13,18,32,22.00
2013,08,13,18,33,22.10
2013,08,13,18,34,22.20
2013,08,13,18,35,22.30
2013,08,13,18,36,22.40
2013,08,13,18,37,22.50
2013,08,13,18,38,22.60
2013,08,13,18,39,22.70
2013,08,13,18,40,22.80
2013,08,13,18,41,22.80
2013,08,13,18,42,22.80
2013,08,13,18,43,22.80
2013,08,13,18,44,22.80
2013,08,13,18,45,22.80
2013,08,13,18,46,22.80
2013,08,13,18,47,22.80
2013,08,13,18,48,22.80
2013,08,13,18,49,22.80
2013,08,13,18,50,22.80
2013,08,13,18,51,22.80
2013,08,13,18,52,22.80
2013,08,13,18,53,22.80
2013,08,13,18,54,22.80
2013,08,13,18,55,22.80
